Weather History for KEKQ - May, 2013

Change the Weather History Date:

Sunday, May 5, 2013

  Actual Average (KLOZ) Record (KLOZ)
Temperature  
Mean Temperature 54 °F 62 °F  
Max Temperature 57 °F 74 °F 90 °F (1959)
Min Temperature 50 °F 50 °F 33 °F (2011)
Degree Days  
Heating Degree Days 12 4  
Month to date heating degree days 24  
Since 1 July heating degree days 4125  
Cooling Degree Days 0 1  
Month to date cooling degree days 5  
Year to date cooling degree days 31  
Growing Degree Days 4 (Base 50)    
Moisture  
Dew Point 53 °F    
Average Humidity 99    
Maximum Humidity 100    
Minimum Humidity 93    
Precipitation  
Precipitation 1.06 in 0.16 in 1.51 in (2013)
Month to date precipitation 0.78  
Year to date precipitation 16.13  
Sea Level Pressure  
Sea Level Pressure 29.87 in    
Wind  
Wind Speed 8 mph (NE)    
Max Wind Speed 15 mph    
Max Gust Speed 18 mph    
Visibility 5 miles    
Events Rain    
T = Trace of Precipitation, MM = Missing Value Source: NWS Daily Summary

Daily Weather History Graph

Daily Weather History Graph

Search for Another Location

Airport or City:

Trip Planner

Search our weather history database for the weather conditions in past years. The results will help you decide how hot, cold, wet, or windy it might be!

Date:

Astronomy

May. 05, 2013 Rise Set
Actual Time 5:40 AM CDT 7:31 PM CDT
Civil Twilight 5:12 AM CDT 8:00 PM CDT
Nautical Twilight 4:38 AM CDT 8:34 PM CDT
Astronomical Twilight 4:02 AM CDT 9:10 PM CDT
Moon 3:04 AM CDT (5/5) 3:36 PM CDT (5/5)
Length of Visible Light 14h 47m
Length of Day
13h 51m
Waning Crescent, 18% of the Moon is Illuminated
May 5
Waning Crescent
May 9
New
May 17
First Quarter
May 24
Full
May 31
Last Quarter

Hourly Weather History & Observations

Time (CDT) Temp. Dew Point Humidity Pressure Visibility Wind Dir Wind Speed Gust Speed Precip Events Conditions
12:03 AM 53.6 °F 53.6 °F 100% 29.93 in 7.0 mi ENE 10.4 mph - 0.00 in Rain Light Rain
12:10 AM 55.4 °F 55.4 °F 100% 29.93 in 8.0 mi ENE 8.1 mph - 0.00 in Rain Light Rain
12:56 AM 54.0 °F 52.9 °F 96% 29.93 in 5.0 mi East 13.8 mph 18.4 mph 0.01 in Rain Light Rain
1:06 AM 53.6 °F 53.6 °F 100% 29.91 in 9.0 mi East 9.2 mph - 0.00 in Rain Light Rain
1:31 AM 53.6 °F 53.6 °F 100% 29.90 in 10.0 mi East 6.9 mph - 0.00 in   Mostly Cloudy
1:56 AM 52.9 °F 52.9 °F 100% 29.90 in 7.0 mi ENE 8.1 mph - 0.00 in Rain Light Rain
2:56 AM 52.9 °F 52.9 °F 100% 29.88 in 9.0 mi ENE 4.6 mph - 0.00 in Rain Light Rain
3:14 AM 53.6 °F 53.6 °F 100% 29.86 in 10.0 mi NE 8.1 mph - 0.00 in Rain Light Rain
3:29 AM 51.8 °F 51.8 °F 100% 29.86 in 3.0 mi NE 9.2 mph - 0.02 in Rain Rain
3:56 AM 52.0 °F 52.0 °F 100% 29.88 in 2.5 mi NE 6.9 mph - 0.03 in Rain Rain
4:15 AM 51.8 °F 51.8 °F 100% 29.87 in 2.5 mi NE 8.1 mph - 0.03 in Rain Rain
4:25 AM 51.8 °F 51.8 °F 100% 29.87 in 4.0 mi NE 4.6 mph - 0.03 in Rain Light Rain
4:47 AM 51.8 °F 51.8 °F 100% 29.87 in 2.0 mi NE 5.8 mph - 0.06 in Rain Rain
4:56 AM 50.9 °F 50.9 °F 100% 29.89 in 2.0 mi NE 4.6 mph - 0.09 in Rain Rain
5:04 AM 51.8 °F 51.8 °F 100% 29.87 in 1.8 mi NNE 6.9 mph - 0.02 in Rain Rain
5:10 AM 51.8 °F 51.8 °F 100% 29.87 in 3.0 mi NNE 5.8 mph - 0.02 in Rain Light Rain
5:29 AM 51.8 °F 51.8 °F 100% 29.87 in 2.5 mi NNE 3.5 mph - 0.05 in Rain Light Rain
5:56 AM 50.9 °F 50.9 °F 100% 29.90 in 2.0 mi NE 3.5 mph - 0.11 in Rain Rain
6:07 AM 51.8 °F 51.8 °F 100% 29.88 in 3.0 mi NE 4.6 mph - 0.01 in Rain Light Rain
6:56 AM 50.9 °F 50.9 °F 100% 29.90 in 5.0 mi NE 5.8 mph - 0.02 in Rain Light Rain
7:03 AM 51.8 °F 51.8 °F 100% 29.89 in 4.0 mi ENE 5.8 mph - 0.00 in Rain Light Rain
7:07 AM 51.8 °F 51.8 °F 100% 29.89 in 4.0 mi ENE 3.5 mph - 0.00 in Rain Light Rain
7:19 AM 51.8 °F 51.8 °F 100% 29.89 in 2.0 mi NE 5.8 mph - 0.02 in Rain Rain
7:38 AM 51.8 °F 51.8 °F 100% 29.88 in 3.0 mi NE 4.6 mph - 0.03 in Rain Light Rain
7:56 AM 50.9 °F 50.9 °F 100% 29.90 in 4.0 mi ENE 8.1 mph - 0.05 in Rain Light Rain
8:23 AM 51.8 °F 51.8 °F 100% 29.88 in 2.5 mi ENE 6.9 mph - 0.02 in Rain Rain
8:33 AM 51.8 °F 51.8 °F 100% 29.88 in 4.0 mi ENE 8.1 mph - 0.03 in Rain Light Rain
8:56 AM 52.0 °F 52.0 °F 100% 29.90 in 3.0 mi ENE 9.2 mph - 0.05 in Rain Rain
9:01 AM 51.8 °F 51.8 °F 100% 29.89 in 2.5 mi ENE 9.2 mph - 0.01 in Rain Rain
9:15 AM 51.8 °F 51.8 °F 100% 29.88 in 3.0 mi ENE 9.2 mph - 0.02 in Rain Rain
9:36 AM 51.8 °F 51.8 °F 100% 29.88 in 2.5 mi ENE 9.2 mph - 0.05 in Rain Rain
9:48 AM 53.6 °F 53.6 °F 100% 29.88 in 4.0 mi NE 10.4 mph - 0.06 in Rain Light Rain
9:56 AM 52.9 °F 52.9 °F 100% 29.90 in 8.0 mi ENE 8.1 mph - 0.06 in Rain Light Rain
10:19 AM 53.6 °F 53.6 °F 100% 29.88 in 3.0 mi ENE 8.1 mph - 0.01 in Rain Light Rain
10:56 AM 54.9 °F 54.9 °F 100% 29.90 in 4.0 mi ENE 10.4 mph - 0.03 in Rain Light Rain
11:12 AM 55.4 °F 55.4 °F 100% 29.88 in 9.0 mi ENE 8.1 mph - 0.00 in Rain Light Rain
11:56 AM 55.9 °F 55.9 °F 100% 29.89 in 3.0 mi ENE 8.1 mph - 0.03 in Rain Light Rain
12:01 PM 55.4 °F 55.4 °F 100% 29.88 in 5.0 mi ENE 6.9 mph - 0.00 in Rain Light Rain
12:56 PM 56.8 °F 54.9 °F 93% 29.88 in 9.0 mi East 10.4 mph - 0.01 in Rain Light Rain
1:06 PM 57.2 °F 55.4 °F 94% 29.86 in 7.0 mi East 11.5 mph - 0.00 in Rain Light Rain
1:17 PM 57.2 °F 55.4 °F 94% 29.86 in 9.0 mi ENE 10.4 mph - 0.00 in Rain Light Rain
1:31 PM 57.2 °F 55.4 °F 94% 29.86 in 6.0 mi East 8.1 mph - 0.00 in Rain Light Rain
1:39 PM 57.2 °F 55.4 °F 94% 29.86 in 4.0 mi East 10.4 mph - 0.01 in Rain Light Rain
1:46 PM 55.4 °F 55.4 °F 100% 29.86 in 2.5 mi ENE 10.4 mph - 0.01 in Rain Light Rain
1:56 PM 55.9 °F 55.9 °F 100% 29.87 in 3.0 mi ENE 9.2 mph - 0.02 in Rain Light Rain
2:02 PM 55.4 °F 55.4 °F 100% 29.86 in 2.5 mi ENE 11.5 mph - 0.00 in Rain Light Rain
2:12 PM 55.4 °F 55.4 °F 100% 29.86 in 1.5 mi East 9.2 mph - 0.01 in Rain Light Rain
2:24 PM 57.2 °F 55.4 °F 94% 29.86 in 3.0 mi East 6.9 mph - 0.01 in Rain Light Rain
2:56 PM 55.9 °F 55.9 °F 100% 29.86 in 2.0 mi NE 8.1 mph - 0.03 in Rain Rain
3:04 PM 55.4 °F 55.4 °F 100% 29.84 in 1.8 mi NE 6.9 mph - 0.01 in Rain Rain
3:11 PM 55.4 °F 55.4 °F 100% 29.84 in 2.0 mi NE 8.1 mph - 0.01 in Rain Light Rain
3:22 PM 55.4 °F 55.4 °F 100% 29.84 in 4.0 mi NE 10.4 mph - 0.01 in Rain Light Rain
3:38 PM 55.4 °F 55.4 °F 100% 29.84 in 7.0 mi ENE 8.1 mph - 0.02 in Rain Light Rain
3:48 PM 57.2 °F 57.2 °F 100% 29.83 in 6.0 mi ENE 10.4 mph - 0.02 in Rain Light Rain
3:56 PM 56.8 °F 56.8 °F 100% 29.85 in 10.0 mi ENE 9.2 mph - 0.02 in Rain Light Rain
4:15 PM 57.2 °F 55.4 °F 94% 29.83 in 10.0 mi NE 15.0 mph 18.4 mph 0.00 in   Overcast
4:19 PM 55.4 °F 55.4 °F 100% 29.84 in 10.0 mi NE 12.7 mph - 0.00 in   Overcast
4:33 PM 55.4 °F 55.4 °F 100% 29.84 in 10.0 mi NE 11.5 mph - 0.00 in   Overcast
4:56 PM 54.9 °F 54.9 °F 100% 29.85 in 10.0 mi NE 15.0 mph - 0.00 in Rain Light Rain
5:56 PM 54.0 °F 54.0 °F 100% 29.84 in 3.0 mi ENE 10.4 mph - 0.00 in   Overcast
6:16 PM 53.6 °F 53.6 °F 100% 29.83 in 10.0 mi ENE 9.2 mph - N/A   Overcast
6:56 PM 54.0 °F 52.9 °F 96% 29.85 in 10.0 mi ENE 6.9 mph - N/A   Overcast
7:56 PM 52.9 °F 52.9 °F 100% 29.86 in 10.0 mi NE 6.9 mph - N/A   Overcast
8:45 PM 53.6 °F 53.6 °F 100% 29.86 in 1.8 mi WSW 4.6 mph - 0.08 in Rain Rain
8:48 PM 53.6 °F 53.6 °F 100% 29.86 in 1.0 mi West 3.5 mph - 0.11 in Rain Rain
8:56 PM 52.0 °F 52.0 °F 100% 29.88 in 1.0 mi NW 3.5 mph - 0.18 in Rain Heavy Rain
9:02 PM 51.8 °F 51.8 °F 100% 29.85 in 1.5 mi NW 6.9 mph - 0.02 in Rain Heavy Rain
9:07 PM 51.8 °F 51.8 °F 100% 29.85 in 2.0 mi North 5.8 mph - 0.03 in Rain Rain
9:10 PM 51.8 °F 51.8 °F 100% 29.86 in 1.8 mi NE 4.6 mph - 0.05 in Rain Heavy Rain
9:13 PM 53.6 °F 53.6 °F 100% 29.85 in 1.2 mi North 6.9 mph - 0.07 in Rain Rain
9:17 PM 51.8 °F 51.8 °F 100% 29.85 in 1.0 mi North 10.4 mph - 0.08 in Rain Rain
9:21 PM 51.8 °F 51.8 °F 100% 29.86 in 1.5 mi NE 6.9 mph - 0.09 in Rain Heavy Rain
9:34 PM 51.8 °F 51.8 °F 100% 29.86 in 1.0 mi ENE 4.6 mph - 0.14 in Rain Heavy Rain
9:56 PM 52.0 °F 52.0 °F 100% 29.87 in 2.0 mi NNE 10.4 mph - 0.25 in Rain Rain
10:02 PM 51.8 °F 51.8 °F 100% 29.85 in 3.0 mi NNE 8.1 mph - 0.01 in Rain Rain
10:09 PM 51.8 °F 51.8 °F 100% 29.85 in 4.0 mi North 6.9 mph - 0.02 in Rain Light Rain
10:40 PM 51.8 °F 51.8 °F 100% 29.85 in 10.0 mi NNE 4.6 mph - 0.03 in   Overcast
10:56 PM 52.0 °F 52.0 °F 100% 29.86 in 10.0 mi NE 6.9 mph - 0.03 in   Overcast
11:16 PM 51.8 °F 51.8 °F 100% 29.84 in 10.0 mi NE 5.8 mph - 0.00 in   Overcast
11:32 PM 51.8 °F 51.8 °F 100% 29.83 in 2.0 mi NNE 6.9 mph - 0.01 in Rain Rain
11:39 PM 51.8 °F 51.8 °F 100% 29.83 in 2.5 mi NE 4.6 mph - 0.03 in Rain Rain
11:49 PM 51.8 °F 51.8 °F 100% 29.83 in 3.0 mi NE 5.8 mph - 0.04 in Rain Rain
11:56 PM 52.0 °F 52.0 °F 100% 29.84 in 4.0 mi NE 6.9 mph - 0.04 in Rain Light Rain